Total_Precipitation_Accumulation
1.96 2.29 2.63 2.93 3.42 3.42 3.29 3.38 3.54 3.74 3.85 4.10 4.19 4.42 4.77 5.01 5.14 5.15 5.02 4.99 4.88 5.00 5.05 4.84 4.63 4.49 4.48 4.39 4.36 4.18 3.97 3.71 3.59 3.51 3.10 2.54 2.24 2.22 2.18 2.19 2.19 2.16 2.20
2.30 2.46 2.66 3.07 3.52 3.66 3.64 3.66 3.85 4.16 4.38 4.60 5.05 5.34 5.61 5.86 6.04 6.05 5.61 5.40 5.29 5.19 5.11 5.14 5.05 4.86 4.68 4.50 4.32 4.24 4.06 3.72 3.64 3.62 3.47 2.95 2.51 2.10 1.84 1.86 1.87 1.89 2.04
2.50 2.57 2.65 3.00 3.33 3.51 3.60 3.71 3.96 4.41 4.93 5.31 5.77 6.18 6.33 6.36 6.22 5.95 5.82 5.67 5.50 5.34 5.19 5.07 4.84 4.69 4.58 4.42 4.22 4.05 3.94 3.72 3.59 3.55 3.64 3.31 2.84 2.32 1.93 1.71 1.65 1.65 1.77
2.45 2.54 2.69 2.94 3.23 3.46 3.59 3.91 4.42 5.03 5.58 6.05 6.60 7.07 7.14 6.97 6.67 6.21 5.78 5.55 5.29 4.97 4.74 4.62 4.51 4.33 4.02 3.79 3.65 3.57 3.43 3.30 3.15 3.20 3.17 3.02 2.83 2.78 2.50 2.16 1.97 1.88 1.87
2.11 2.36 2.52 2.70 3.09 3.29 3.51 3.86 4.43 5.12 5.81 6.61 7.29 7.72 7.61 7.27 6.85 6.16 5.58 5.11 4.72 4.37 4.11 3.98 3.82 3.59 3.23 2.88 2.76 2.83 2.92 2.93 2.86 2.85 2.89 2.88 2.72 2.66 2.61 2.44 2.25 2.13 2.00
1.85 1.99 2.13 2.38 2.68 2.98 3.25 3.66 4.29 4.99 5.62 6.24 6.76 6.99 6.89 6.69 6.17 5.48 4.85 4.45 4.12 3.77 3.43 3.12 2.86 2.63 2.46 2.27 2.23 2.27 2.36 2.56 2.67 2.80 2.81 2.80 2.69 2.61 2.62 2.51 2.42 2.33 2.17
1.74 1.75 1.84 2.04 2.37 2.54 2.88 3.32 3.77 4.41 4.81 5.13 5.55 5.73 5.76 5.54 5.22 4.74 4.27 3.83 3.34 2.99 2.72 2.44 2.34 2.21 2.09 2.02 2.01 2.00 1.97 2.09 2.28 2.41 2.50 2.56 2.56 2.55 2.60 2.70 2.66 2.47 2.27
1.64 1.65 1.77 1.95 2.21 2.31 2.49 2.71 3.03 3.41 3.57 3.60 3.85 4.11 4.14 4.08 3.94 3.64 3.30 3.01 2.65 2.28 2.04 1.84 1.73 1.72 1.78 1.72 1.75 1.76 1.76 1.78 1.86 1.96 2.15 2.27 2.29 2.32 2.32 2.37 2.48 2.53 2.37
1.45 1.57 1.67 1.69 1.75 1.83 1.93 2.03 2.21 2.38 2.47 2.55 2.62 2.77 2.79 2.78 2.69 2.50 2.25 2.06 1.90 1.67 1.54 1.45 1.43 1.41 1.45 1.52 1.52 1.47 1.50 1.58 1.62 1.63 1.74 1.83 1.86 1.92 2.00 2.08 2.16 2.34 2.38
1.33 1.42 1.51 1.52 1.54 1.54 1.63 1.69 1.76 1.84 1.88 1.95 1.92 1.90 1.93 1.94 1.91 1.75 1.66 1.57 1.45 1.35 1.35 1.27 1.21 1.15 1.15 1.17 1.22 1.25 1.28 1.32 1.39 1.42 1.43 1.48 1.50 1.59 1.69 1.82 1.93 2.01 2.10
1.23 1.30 1.30 1.30 1.31 1.32 1.39 1.47 1.48 1.47 1.48 1.47 1.45 1.43 1.39 1.39 1.45 1.44 1.38 1.30 1.22 1.11 1.08 0.98 0.92 0.88 0.92 0.98 1.06 1.10 1.15 1.19 1.22 1.27 1.29 1.32 1.31 1.38 1.43 1.46 1.52 1.67 1.77
1.31 1.31 1.24 1.19 1.13 1.14 1.19 1.26 1.26 1.25 1.30 1.22 1.12 1.13 1.12 1.12 1.17 1.19 1.09 1.03 1.02 0.95 0.88 0.77 0.73 0.73 0.77 0.83 0.88 0.93 0.97 1.07 1.09 1.08 1.09 1.10 1.11 1.16 1.18 1.23 1.26 1.35 1.48
1.67 1.54 1.35 1.26 1.21 1.16 1.10 1.04 1.06 1.07 1.08 1.05 1.01 1.00 1.00 1.01 1.02 1.03 0.99 0.91 0.89 0.87 0.80 0.70 0.68 0.67 0.67 0.69 0.73 0.78 0.77 0.82 0.89 0.93 0.98 1.00 1.01 0.98 0.93 0.99 1.07 1.14 1.24
1.87 1.66 1.43 1.34 1.31 1.21 1.11 1.05 1.06 0.98 0.92 0.92 0.90 0.91 0.92 0.94 0.93 0.96 1.00 0.94 0.83 0.76 0.71 0.67 0.63 0.62 0.61 0.63 0.64 0.62 0.66 0.72 0.77 0.79 0.83 0.86 0.90 0.91 0.90 0.91 1.03 1.09 1.22
1.79 1.70 1.58 1.49 1.43 1.32 1.25 1.13 1.05 0.96 0.91 0.87 0.86 0.83 0.80 0.78 0.79 0.84 0.87 0.86 0.80 0.69 0.65 0.60 0.57 0.52 0.48 0.45 0.46 0.47 0.53 0.62 0.64 0.69 0.69 0.70 0.77 0.86 0.85 0.83 0.92 1.02 1.17
1.90 1.81 1.72 1.62 1.57 1.45 1.39 1.30 1.18 1.12 1.01 0.94 0.93 0.87 0.82 0.76 0.75 0.75 0.78 0.77 0.70 0.64 0.60 0.56 0.52 0.47 0.36 0.38 0.37 0.38 0.46 0.57 0.62 0.61 0.60 0.57 0.58 0.65 0.73 0.75 0.83 0.94 1.03
1.98 1.86 1.85 1.83 1.76 1.70 1.59 1.45 1.29 1.20 1.01 0.89 0.86 0.85 0.82 0.76 0.72 0.66 0.63 0.66 0.70 0.67 0.59 0.54 0.53 0.54 0.46 0.30 0.26 0.29 0.40 0.56 0.57 0.57 0.62 0.56 0.53 0.61 0.65 0.68 0.69 0.74 0.77
2.15 2.02 1.92 1.88 1.80 1.71 1.58 1.40 1.21 1.04 0.88 0.81 0.79 0.74 0.70 0.70 0.71 0.64 0.61 0.63 0.66 0.64 0.62 0.57 0.59 0.63 0.48 0.31 0.21 0.25 0.40 0.51 0.47 0.49 0.57 0.65 0.68 0.63 0.62 0.65 0.70 0.75 0.76
2.14 2.03 1.90 1.83 1.73 1.54 1.36 1.25 1.04 0.92 0.85 0.78 0.76 0.68 0.60 0.65 0.66 0.64 0.63 0.66 0.63 0.62 0.61 0.60 0.64 0.67 0.52 0.35 0.26 0.29 0.41 0.48 0.48 0.49 0.48 0.51 0.58 0.57 0.62 0.69 0.83 0.89 0.91
1.87 1.83 1.67 1.55 1.50 1.32 1.14 1.07 0.95 0.85 0.82 0.75 0.72 0.65 0.63 0.64 0.67 0.69 0.67 0.61 0.60 0.58 0.52 0.56 0.64 0.63 0.55 0.37 0.29 0.31 0.36 0.46 0.55 0.61 0.61 0.56 0.54 0.53 0.59 0.72 0.86 0.93 0.95
1.55 1.55 1.47 1.40 1.26 1.09 1.05 1.08 1.03 0.89 0.72 0.63 0.62 0.64 0.66 0.61 0.58 0.60 0.62 0.60 0.54 0.55 0.54 0.55 0.58 0.61 0.48 0.35 0.31 0.36 0.42 0.48 0.56 0.64 0.70 0.64 0.58 0.55 0.55 0.61 0.74 0.85 0.85
1.24 1.33 1.38 1.30 1.18 1.07 1.05 1.05 1.01 0.81 0.69 0.67 0.68 0.65 0.60 0.49 0.47 0.56 0.59 0.55 0.53 0.56 0.59 0.60 0.63 0.60 0.46 0.36 0.32 0.35 0.38 0.40 0.51 0.65 0.63 0.60 0.57 0.53 0.56 0.59 0.69 0.78 0.91
1.04 1.10 1.18 1.16 1.11 1.03 1.03 1.02 0.90 0.72 0.67 0.72 0.67 0.61 0.53 0.47 0.45 0.50 0.52 0.50 0.49 0.46 0.45 0.48 0.54 0.50 0.42 0.37 0.30 0.30 0.32 0.32 0.40 0.51 0.53 0.51 0.50 0.54 0.67 0.72 0.77 0.90 1.10
0.89 0.94 1.03 1.04 1.00 0.92 0.90 0.90 0.80 0.75 0.76 0.74 0.65 0.56 0.49 0.43 0.39 0.40 0.38 0.38 0.39 0.39 0.39 0.39 0.41 0.39 0.35 0.29 0.25 0.27 0.30 0.30 0.33 0.42 0.52 0.60 0.66 0.74 0.88 0.99 1.07 1.10 1.13
0.83 0.86 0.96 0.95 0.84 0.76 0.72 0.69 0.73 0.77 0.80 0.72 0.59 0.50 0.43 0.36 0.35 0.30 0.24 0.23 0.24 0.24 0.27 0.26 0.24 0.25 0.25 0.19 0.21 0.24 0.27 0.28 0.30 0.36 0.51 0.73 0.85 0.95 1.00 1.04 1.09 1.08 1.00
0.74 0.80 0.80 0.76 0.68 0.62 0.61 0.57 0.61 0.66 0.64 0.59 0.51 0.42 0.35 0.33 0.27 0.25 0.22 0.16 0.15 0.16 0.18 0.19 0.18 0.16 0.17 0.17 0.16 0.19 0.21 0.24 0.28 0.36 0.57 0.76 0.86 0.92 0.97 0.98 0.96 0.92 0.87